Location: Foulognes
(49.1413°N, 0.8183°W)
Time: 07:41:45
(UTC+00:00)

STARLINK-51 - Pass Details

Date: 21 October 2019
Orbit: 549 x 551 km, 53.0° (Epoch: 20 November)

Event Time Altitude Azimuth Distance (km) Brightness Sun altitude
Rises 18:24:48 0° 279° (W) 2,718 9.0 -14.2°
Reaches altitude 10° 18:27:06 10° 285° (WNW) 1,825 7.5 -14.5°
Maximum altitude 18:31:08 48° 1° (N) 724 4.2 -15.2°
Enters shadow 18:33:10 26° 63° (ENE) 1,115 4.7 -15.5°
